Vorticity
4 -4 -4 4 21 -1 7 4 -1 13 -5 21 8 13 6 -1 -3 2 6 4 3 4 4 4 4 4 5 5 6 6 6 6 6 6 6 6 6 6 6 6 5 6 5 4 4 4 4 4 4
0 -10 1 -26 33 45 11 0 0 11 7 3 1 0 15 13 -10 15 4 4 4 4 4 4 4 4 4 4 4 5 4 5 4 5 5 5 5 5 6 6 6 6 5 5 4 4 4 4 4
8 0 20 21 3 35 9 6 4 4 -5 1 3 3 8 10 13 6 5 2 4 4 3 3 3 3 2 2 2 3 4 4 4 4 3 3 2 2 3 5 6 6 6 5 5 4 4 4 4
-25 0 15 3 6 13 22 3 1 6 -2 2 -3 12 13 7 4 6 5 4 4 3 3 4 2 2 2 3 4 4 4 4 3 3 3 2 2 2 3 3 3 5 6 6 6 5 5 5 5
-9 6 -3 24 9 14 4 11 8 6 6 5 -6 7 7 5 5 6 4 3 3 3 4 3 3 4 4 5 6 8 8 7 8 7 6 7 8 8 8 7 6 5 4 4 6 7 6 5 4
11 -8 -4 -5 5 7 10 6 5 3 12 5 3 8 5 4 5 7 5 3 3 2 3 3 5 9 11 9 8 6 7 7 7 7 8 8 8 8 8 9 9 10 9 8 5 4 5 6 6
2 10 5 34 2 1 12 1 -1 6 3 8 4 4 6 3 8 5 3 4 1 1 3 7 12 5 5 7 7 7 6 7 7 8 8 8 9 9 9 9 9 9 10 11 10 9 8 5 5
11 8 12 2 10 11 12 3 2 5 4 12 -4 8 11 2 4 4 4 2 1 2 6 9 4 8 6 8 8 7 8 8 8 8 8 8 8 8 9 9 9 8 9 8 9 9 10 10 9
8 2 34 14 9 4 14 2 3 -3 3 5 0 -7 9 5 4 4 5 3 1 4 9 5 6 7 7 8 7 8 9 10 10 10 10 9 8 6 6 6 6 6 7 8 8 9 10 11 10
17 -4 -6 12 11 13 9 5 0 -4 14 3 4 2 8 4 4 4 5 3 2 7 7 6 5 6 7 8 9 10 9 8 7 7 7 7 7 8 8 8 8 7 7 8 9 8 8 8 8
8 8 5 7 11 6 30 3 5 12 8 7 3 2 4 6 5 6 5 2 3 8 5 5 6 8 9 9 10 9 8 8 8 8 8 8 8 8 9 9 10 11 11 11 11 10 10 10 10
2 5 12 1 25 21 5 6 20 1 28 6 6 4 6 6 5 6 3 2 5 7 5 6 7 7 7 8 9 8 8 8 8 8 8 8 8 8 8 8 8 8 8 8 9 10 11 12 14
14 6 6 13 14 6 7 10 8 4 -6 2 4 9 8 4 5 4 1 2 8 6 6 5 7 7 7 9 8 8 8 8 8 7 7 7 6 6 6 6 6 5 4 3 3 3 2 2 2
16 11 4 16 11 8 8 8 -1 6 3 6 -4 11 10 7 5 4 2 3 10 6 5 5 6 6 8 8 8 8 7 7 6 6 6 6 6 6 5 5 5 4 4 4 4 3 3 4 3
14 7 10 8 4 11 2 5 6 8 1 7 11 10 8 10 0 2 3 8 9 6 5 5 7 7 7 7 7 6 6 5 5 6 6 6 6 6 5 4 4 4 4 6 5 6 7 6 6
6 4 3 12 5 -1 -9 11 11 -2 16 5 5 8 6 4 3 1 5 7 9 7 5 5 7 7 7 7 6 6 5 5 5 4 4 4 4 4 5 5 7 7 8 7 8 7 7 6 6
12 -6 12 3 1 -4 3 53 10 -9 -2 4 8 7 8 2 3 1 6 4 7 9 6 5 6 7 6 6 6 5 5 5 5 6 5 5 4 5 7 7 7 7 7 7 8 10 11 9 8
19 6 8 -1 -10 9 5 -12 -0 1 21 14 5 11 7 9 3 4 4 4 7 11 6 6 6 5 6 7 6 6 6 6 6 6 7 6 6 7 7 8 7 7 7 7 5 4 3 9 7
-8 16 1 7 36 23 7 6 6 -6 -1 11 6 6 4 3 6 2 2 5 5 10 7 6 6 5 7 7 7 7 7 7 5 7 6 6 4 4 3 3 4 4 6 8 9 7 6 2 7
9 8 12 40 0 8 6 5 4 21 -3 -7 31 5 10 5 7 -1 2 11 10 9 6 6 5 7 6 7 7 8 7 5 6 6 5 3 3 2 2 2 3 3 4 6 8 8 6 2 6
11 12 1 18 14 8 11 4 12 15 15 13 13 10 7 7 6 -6 -2 11 13 7 9 6 5 7 7 7 6 7 6 6 4 4 5 2 2 1 2 2 2 0 1 3 5 5 6 3 4
1 19 12 -1 8 2 40 -11 13 17 14 9 2 13 8 6 10 6 -2 2 10 7 13 6 6 7 7 6 6 7 6 5 1 6 4 3 1 2 2 1 1 1 1 2 2 6 5 5 2
2 10 9 12 7 7 10 5 -6 3 14 15 17 14 13 17 3 4 -1 3 5 7 9 9 7 6 8 9 7 8 7 5 1 5 3 1 2 1 1 2 2 2 2 2 2 4 5 5 3
-10 3 8 7 6 24 10 23 -5 4 19 11 15 9 12 18 20 8 8 1 5 7 4 11 8 9 8 10 7 6 5 7 -5 2 3 -0 2 0 0 2 1 3 3 3 2 3 5 4 5
10 -1 12 28 17 -1 11 12 24 8 -6 1 -1 9 21 17 18 26 7 -0 4 11 12 10 12 8 8 10 9 7 5 4 1 2 2 0 3 1 3 3 4 2 3 4 3 5 5 4 6
14 4 -14 14 6 -5 14 -1 6 0 23 9 6 0 8 13 22 26 15 5 10 9 11 15 11 10 7 6 9 7 6 4 4 1 2 7 -0 2 1 5 3 3 4 4 3 4 4 7 5
21 14 8 14 18 17 -0 1 18 6 7 2 11 16 9 4 1 3 11 16 11 2 4 9 18 17 10 3 6 6 5 5 2 -0 8 -2 2 2 3 4 5 4 4 3 5 6 10 11 12
-13 21 16 6 10 7 8 9 61 6 6 4 -1 -0 2 -3 -1 -2 2 11 17 9 6 4 5 12 23 6 5 4 4 3 4 7 -0 4 2 5 5 4 3 4 4 5 6 13 10 9 6
25 -8 -3 11 -12 1 10 16 -5 16 9 5 -3 3 -8 2 -5 2 16 18 19 22 9 10 6 3 22 9 3 3 3 5 6 1 3 2 4 5 4 4 4 5 6 7 10 9 7 2 14
9 22 18 -9 30 1 -13 20 -7 2 8 -9 -18 -6 6 -3 13 13 10 10 18 18 12 9 12 4 11 -0 6 9 14 10 5 2 3 5 5 5 5 4 5 6 8 9 11 4 5 18 22
Height
3171 3173 3175 3173 3181 3176 3176 3178 3178 3180 3180 3180 3180 3181 3183 3184 3184 3189 3187 3187 3185 3185 3186 3186 3187 3187 3187 3186 3185 3185 3184 3183 3183 3182 3182 3181 3181 3181 3180 3180 3179 3179 3179 3179 3178 3177 3177 3177 3176
3173 3173 3179 3174 3177 3174 3178 3179 3178 3180 3180 3181 3183 3184 3184 3185 3185 3186 3187 3186 3186 3186 3186 3188 3188 3188 3188 3187 3186 3186 3185 3184 3183 3183 3182 3182 3181 3181 3180 3180 3180 3179 3179 3179 3179 3178 3178 3177 3176
3175 3175 3177 3176 3177 3177 3177 3179 3180 3179 3181 3184 3184 3184 3184 3186 3185 3186 3187 3186 3187 3188 3188 3188 3188 3188 3188 3187 3186 3185 3185 3184 3183 3183 3182 3181 3180 3180 3180 3180 3180 3179 3179 3178 3178 3177 3177 3177 3177
3173 3177 3181 3178 3179 3178 3177 3178 3177 3179 3181 3183 3183 3184 3185 3185 3186 3187 3187 3188 3188 3188 3189 3189 3189 3189 3188 3187 3186 3185 3184 3183 3183 3182 3182 3181 3180 3180 3180 3180 3179 3179 3178 3178 3177 3177 3176 3176 3176
3177 3178 3178 3177 3179 3176 3176 3177 3178 3180 3182 3184 3186 3185 3186 3186 3187 3188 3188 3189 3189 3189 3190 3190 3189 3189 3188 3187 3185 3184 3183 3182 3182 3181 3180 3180 3179 3179 3178 3178 3178 3178 3178 3177 3177 3176 3175 3175 3175
3178 3179 3179 3180 3181 3179 3176 3178 3180 3183 3183 3184 3186 3185 3186 3186 3188 3189 3189 3189 3190 3190 3191 3190 3189 3188 3188 3187 3185 3184 3183 3182 3182 3181 3180 3179 3178 3178 3177 3177 3176 3176 3175 3175 3175 3175 3175 3175 3174
3179 3179 3177 3177 3180 3181 3177 3179 3182 3186 3186 3185 3186 3186 3187 3187 3188 3190 3190 3190 3190 3191 3190 3190 3189 3188 3187 3186 3185 3184 3183 3182 3181 3181 3180 3179 3178 3178 3177 3176 3175 3175 3174 3174 3173 3172 3172 3172 3172
3177 3178 3176 3175 3176 3179 3177 3181 3184 3187 3188 3187 3189 3188 3187 3186 3189 3190 3190 3190 3191 3190 3189 3188 3188 3188 3187 3186 3184 3183 3182 3181 3181 3180 3179 3178 3177 3176 3176 3174 3174 3173 3173 3172 3172 3171 3170 3169 3168
3178 3180 3178 3176 3173 3175 3176 3180 3184 3185 3184 3187 3185 3185 3185 3187 3189 3189 3190 3190 3190 3189 3188 3188 3187 3187 3186 3185 3184 3183 3182 3180 3180 3179 3178 3177 3177 3176 3175 3174 3173 3172 3171 3170 3169 3169 3169 3168 3167
3180 3180 3179 3176 3174 3174 3176 3179 3181 3184 3182 3185 3186 3185 3186 3188 3188 3189 3189 3189 3188 3189 3188 3187 3186 3186 3185 3185 3184 3183 3182 3181 3180 3179 3178 3177 3176 3176 3175 3174 3173 3171 3170 3169 3167 3166 3165 3164 3164
3181 3181 3179 3177 3176 3174 3175 3181 3179 3184 3184 3185 3185 3184 3187 3188 3188 3189 3189 3188 3187 3187 3187 3187 3186 3186 3185 3185 3184 3183 3182 3181 3180 3179 3178 3177 3177 3176 3175 3174 3173 3172 3170 3168 3167 3166 3164 3163 3162
3182 3178 3179 3175 3174 3175 3177 3179 3180 3185 3186 3185 3183 3184 3186 3187 3188 3188 3188 3187 3187 3187 3186 3187 3186 3185 3185 3184 3184 3183 3182 3181 3180 3179 3178 3177 3176 3175 3175 3173 3172 3171 3170 3169 3167 3166 3164 3163 3161
3181 3179 3177 3175 3176 3177 3179 3177 3180 3183 3184 3183 3181 3183 3185 3186 3187 3187 3187 3186 3185 3187 3187 3186 3186 3185 3185 3184 3183 3182 3181 3181 3180 3179 3179 3178 3177 3176 3175 3173 3172 3170 3169 3168 3166 3164 3163 3161 3159
3180 3179 3177 3176 3177 3177 3178 3177 3179 3181 3181 3182 3181 3183 3184 3185 3186 3187 3187 3187 3186 3186 3187 3186 3185 3185 3185 3184 3184 3183 3182 3182 3181 3180 3179 3178 3178 3176 3175 3174 3172 3171 3169 3167 3165 3162 3160 3158 3156
3179 3178 3177 3177 3176 3176 3179 3178 3178 3178 3179 3180 3181 3182 3182 3184 3184 3186 3186 3186 3184 3185 3186 3186 3185 3185 3184 3184 3184 3183 3182 3180 3180 3180 3179 3179 3178 3177 3176 3173 3172 3170 3168 3166 3164 3161 3159 3157 3155
3179 3179 3178 3176 3175 3177 3177 3177 3176 3176 3177 3179 3180 3181 3181 3182 3183 3182 3184 3183 3183 3184 3184 3184 3185 3185 3184 3184 3183 3182 3181 3180 3180 3180 3179 3178 3177 3176 3174 3172 3171 3169 3166 3164 3161 3159 3157 3154 3152
3177 3175 3175 3175 3174 3176 3177 3174 3176 3175 3177 3177 3178 3179 3180 3180 3180 3179 3181 3180 3181 3183 3183 3184 3184 3184 3183 3183 3183 3182 3181 3180 3179 3179 3178 3177 3176 3174 3173 3171 3169 3167 3164 3162 3160 3157 3155 3152 3150
3175 3175 3171 3171 3171 3174 3176 3177 3176 3174 3175 3175 3176 3178 3178 3179 3178 3178 3177 3178 3179 3181 3181 3182 3182 3182 3182 3182 3182 3181 3180 3180 3179 3178 3177 3176 3175 3173 3172 3170 3167 3165 3163 3161 3158 3156 3152 3148 3146
3171 3173 3169 3167 3168 3171 3174 3176 3177 3172 3172 3174 3176 3175 3177 3177 3179 3177 3175 3176 3176 3178 3179 3180 3180 3180 3180 3180 3180 3179 3179 3178 3177 3176 3175 3174 3173 3172 3170 3168 3166 3163 3160 3157 3154 3151 3149 3145 3141
3170 3170 3169 3168 3168 3171 3173 3172 3172 3172 3168 3171 3173 3175 3175 3175 3175 3173 3172 3174 3175 3175 3176 3177 3178 3178 3178 3178 3178 3178 3177 3176 3175 3175 3173 3172 3171 3170 3168 3165 3163 3160 3157 3154 3150 3147 3144 3140 3135
3171 3170 3169 3169 3167 3170 3170 3167 3165 3167 3166 3167 3170 3174 3175 3174 3173 3171 3169 3171 3172 3172 3173 3174 3174 3176 3175 3175 3175 3175 3174 3174 3172 3172 3171 3170 3168 3167 3164 3162 3159 3156 3153 3149 3146 3143 3138 3135 3131
3170 3169 3168 3169 3169 3170 3168 3166 3160 3160 3165 3165 3167 3171 3175 3175 3173 3171 3167 3167 3170 3170 3171 3171 3172 3172 3173 3172 3173 3173 3172 3171 3169 3169 3169 3168 3166 3164 3161 3158 3155 3152 3147 3145 3141 3137 3133 3128 3125
3169 3169 3170 3169 3169 3169 3168 3167 3161 3160 3164 3168 3168 3168 3170 3172 3174 3171 3167 3165 3167 3168 3168 3168 3168 3169 3170 3170 3170 3171 3169 3166 3165 3166 3165 3164 3163 3160 3157 3154 3150 3147 3143 3139 3135 3130 3126 3121 3117
3167 3168 3169 3169 3169 3168 3167 3166 3163 3162 3165 3166 3167 3168 3169 3169 3169 3170 3167 3164 3162 3164 3164 3166 3165 3166 3167 3168 3167 3167 3167 3165 3162 3164 3162 3160 3158 3155 3154 3149 3145 3140 3136 3132 3127 3122 3117 3113 3109
3166 3169 3170 3167 3166 3166 3164 3164 3163 3162 3163 3163 3163 3163 3164 3165 3165 3167 3166 3162 3160 3160 3161 3163 3163 3162 3163 3164 3165 3163 3163 3163 3160 3159 3158 3154 3150 3146 3145 3142 3137 3132 3128 3123 3118 3114 3109 3102 3098
3163 3167 3169 3168 3163 3163 3164 3162 3162 3161 3161 3161 3160 3161 3161 3162 3162 3163 3164 3161 3159 3158 3158 3158 3159 3158 3158 3160 3160 3161 3160 3160 3159 3155 3152 3150 3146 3140 3137 3135 3130 3125 3120 3114 3108 3103 3098 3092 3085
3162 3163 3166 3165 3165 3166 3164 3163 3161 3160 3161 3160 3159 3159 3160 3160 3161 3161 3161 3160 3157 3154 3153 3153 3155 3155 3153 3155 3155 3155 3156 3155 3152 3149 3150 3144 3142 3138 3131 3127 3122 3117 3111 3105 3097 3091 3083 3076 3070
3158 3160 3163 3164 3167 3165 3161 3159 3154 3159 3160 3160 3158 3157 3158 3159 3159 3159 3158 3157 3157 3154 3150 3150 3151 3151 3151 3149 3149 3149 3149 3149 3146 3145 3142 3140 3136 3132 3128 3121 3114 3108 3102 3095 3087 3079 3072 3067 3063
3155 3156 3158 3161 3162 3161 3160 3160 3159 3158 3159 3157 3156 3154 3156 3156 3155 3154 3153 3152 3152 3151 3149 3148 3149 3149 3146 3144 3142 3141 3142 3142 3143 3139 3137 3134 3131 3126 3120 3113 3107 3100 3092 3084 3077 3068 3063 3059 3054
3150 3152 3154 3156 3158 3158 3159 3158 3156 3157 3154 3154 3151 3152 3152 3152 3151 3149 3148 3147 3148 3149 3147 3144 3144 3141 3140 3138 3137 3135 3138 3138 3136 3134 3131 3128 3123 3118 3112 3105 3098 3090 3082 3074 3066 3056 3052 3047 3040